{"data":{"norad_id":48055,"intl_designator":"2021-025P","name":"ONEWEB-0157","alt_names":[],"object_type":"PAYLOAD","status":"ACTIVE","operator":null,"country":"UK","launch_date":"2021-03-25","launch_site_code":"VOSTO","launch_vehicle":null,"mission":null,"orbit_class":"UNKNOWN","rcs_meters":null,"size_class":null,"mass_kg":null,"dimensions":null,"purposes":["comms"],"wikipedia_slug":null,"has_3d_model":false,"image_url":null,"decayed_at":null,"tle_current":{"epoch":"2026-09-19T20:13:08.512896Z","epoch_age_seconds":78820,"freshness":"FRESH","line1":"1 48055U 21025P   26262.84245964 -.00000209  00000+0 -60795-3 0  9994","line2":"2 48055  87.8912 301.3911 0001491  98.9942 261.1356 13.13471365265992","mean_motion":13.13471365,"eccentricity":0.0001491,"inclination_deg":87.8912,"raan_deg":301.3911,"arg_perigee_deg":98.9942,"mean_anomaly_deg":261.1356,"bstar":-0.00060795,"rev_number":26599,"period_min":109.63314757913,"perigee_km":1208.6287873804,"apogee_km":1210.8914983084,"semimajor_km":7587.8971428444,"source":"CELESTRAK","updated_at":"2026-09-20T09:00:44.586603Z"}}}